[[{"header":{"parameterUnit":"m.s-1","parameterCategory":1,"la1":30.2991,"la2":30.254,"lo1":-89.0895,"lo2":-89.0444,"dx":0.0017,"dy":0.0017,"nx":28,"ny":28,"refTime":"2023-01-17T09:00:00:Z","depth":0,"parameterNumber":2,"parameterNumberName":"U-component_of_WINDS"},"data":[0,0,0,0,0,0,0,0,0,0,0,0,0,0,0,0,0,0,0,0,0,0,0,0,0,0,0,0,0,0,0,0,0,0,0,0,0,0,0,0,0,0,0,0,0,0,0,0,0,0,0,0,0,0,0,0,0,0,0.3781,0.3781,0,0.3808,0.3808,0.3808,0.3819,0.3819,0.3819,0.3819,0.3847,0.3848,0.3849,0,0,0,0,0,0,0,0,0,0,0,0,0,0.3744,0.3744,0.3781,0.3781,0.3782,0.3808,0.3808,0.3808,0.3819,0.3819,0.3819,0.3819,0.3847,0.3848,0.3849,0,0,0,0,0,0,0,0,0,0,0,0,0,0.3764,0.3745,0.3781,0.379,0.3791,0.3807,0.3808,0.3808,0.3819,0.3819,0.3819,0.3818,0.3846,0.3848,0.3849,0.3859,0,0,0.3853,0.3853,0,0,0,0,0,0,0,0,0.3763,0.3765,0.3788,0.3789,0.3791,0.381,0.3805,0.3825,0.3819,0.3808,0.3819,0.3818,0.3835,0.3837,0.3842,0.386,0.3861,0.3853,0.3854,0.3854,0.3854,0,0,0,0,0,0,0,0.3762,0.3764,0.3792,0.3789,0.379,0.3794,0.3797,0.3809,0.3822,0.3809,0.381,0.3813,0.3835,0.3841,0.3843,0.3862,0.3853,0.3854,0.3855,0.3855,0.3893,0.3893,0,0,0,0,0,0,0.3758,0.3763,0.3791,0.3792,0.3776,0.3795,0.3798,0.3804,0.3822,0.3824,0.3813,0.3813,0.3839,0.3842,0.3844,0.3859,0.3854,0.3855,0.3856,0.3893,0.3893,0.3893,0,0,0,0,0,0,0.3757,0.3761,0.379,0.3778,0.3782,0.3796,0.3802,0.3804,0.381,0.3825,0.3827,0.3816,0.3839,0.3842,0.3856,0.386,0.3856,0.3857,0.3893,0.3893,0.3893,0.3888,0,0,0,0,0,0,0.3756,0.376,0.3763,0.3778,0.3783,0.38,0.3802,0.3805,0.3812,0.3812,0.3828,0.3831,0.3839,0.3854,0.3857,0.3862,0.3858,0.3892,0.3893,0.3893,0.3888,0.3889,0.3889,0,0,0,0,0,0.3755,0.376,0.3763,0.3766,0.3786,0.38,0.3803,0.3812,0.3812,0.3816,0.3826,0.383,0.3859,0.3855,0.3859,0.3864,0.3892,0.3893,0.3893,0.3888,0.3888,0.3889,0,0,0,0,0,0,0.3744,0.3762,0.3765,0.3775,0.3786,0.3802,0.3806,0.3811,0.3823,0.3823,0.3834,0.3838,0.3851,0.3859,0.3854,0.3877,0.3876,0.3878,0.3871,0.3872,0.3872,0.387,0.3859,0,0,0,0,0,0.3743,0.3752,0.3767,0.3774,0.378,0.3792,0.3798,0.3805,0.3817,0.3821,0.3832,0.3844,0.3857,0.3865,0.3876,0.3889,0.3895,0.3895,0.3896,0.3896,0.3897,0.3909,0.391,0.3895,0.3895,0.3895,0,0,0.3741,0.3751,0.3756,0.3773,0.3782,0.3792,0.3796,0.3806,0.3815,0.3823,0.3837,0.3846,0.3861,0.3875,0.3882,0.3882,0.3903,0.3897,0.3897,0.3898,0.3909,0.3911,0.3912,0.3896,0.3896,0.3896,0,0,0.3742,0.375,0.3758,0.3768,0.3782,0.3791,0.3793,0.3809,0.3815,0.383,0.3837,0.3849,0.3868,0.388,0.3888,0.3898,0.3903,0.3901,0.3903,0.3914,0.3915,0.3916,0.3923,0.3924,0.3902,0.3902,0.3902,0,0.3737,0.3752,0.3762,0.3773,0.3781,0.379,0.38,0.381,0.3827,0.3833,0.3833,0.3861,0.3871,0.389,0.3893,0.3898,0.3903,0.3899,0.3914,0.3915,0.3917,0.3923,0.3925,0.3902,0.3902,0.3902,0.3902,0,0.3747,0.3758,0.3764,0.3781,0.379,0.38,0.3813,0.3822,0.3828,0.3838,0.3855,0.3868,0.3884,0.3889,0.3894,0.391,0.391,0.3912,0.3911,0.3918,0.3924,0.3926,0.3902,0.3902,0.3902,0.3902,0,0,0.3741,0.3766,0.3768,0.3778,0.3796,0.3805,0.3817,0.3833,0.3842,0.3854,0.3867,0.3885,0.3888,0.3898,0.3905,0.3915,0.3926,0.3916,0.3917,0.392,0.3947,0.3947,0.3949,0.3929,0.393,0.393,0.3947,0,0.3746,0.3767,0.3778,0.3796,0.3808,0.3818,0.383,0.3843,0.3853,0.3866,0.3878,0.3892,0.3893,0.39,0.3909,0.3922,0.3932,0.3921,0.3943,0.3944,0.394,0.3951,0.395,0.3965,0.3949,0.3949,0.3949,0,0.3754,0.3768,0.3787,0.3807,0.3812,0.3822,0.384,0.3851,0.3868,0.3875,0.3888,0.3896,0.3912,0.3911,0.3934,0.3927,0.3937,0.3945,0.3946,0.395,0.3948,0.3957,0.3969,0.3972,0.3953,0.3952,0.3952,0,0.3751,0.3774,0.3789,0.3797,0.3819,0.3827,0.3837,0.3854,0.3864,0.388,0.3888,0.3905,0.3915,0.393,0.3944,0.3941,0.3967,0.3966,0.3976,0.3976,0.3981,0.3981,0.3997,0.3985,0.3985,0.3985,0.3985,0,0.3756,0.3768,0.3788,0.3797,0.3812,0.3826,0.384,0.3852,0.3867,0.3881,0.3891,0.3904,0.392,0.3936,0.3947,0.3967,0.3971,0.3979,0.3982,0.3979,0.3978,0.3987,0.3987,0.3985,0.3985,0.3985,0.3985,0,0.3754,0.3768,0.3786,0.3807,0.3813,0.3823,0.3842,0.3853,0.3865,0.3882,0.3887,0.3906,0.3926,0.3941,0.3966,0.3974,0.3996,0.3998,0.399,0.3992,0.4002,0.4001,0.4025,0.403,0.4012,0.4013,0.4013,0,0.3757,0.3766,0.379,0.3799,0.381,0.3825,0.3836,0.3851,0.3863,0.3885,0.3894,0.3914,0.3931,0.3963,0.398,0.4,0.4004,0.4011,0.4007,0.4005,0.4008,0.4007,0.401,0.4012,0.4012,0.4012,0.4012,0,0.3761,0.3769,0.3784,0.3803,0.3816,0.3832,0.3848,0.3856,0.3874,0.3887,0.3907,0.3921,0.3948,0.3969,0.3992,0.4005,0.4013,0.4014,0.4017,0.4015,0.4011,0.4016,0.3993,0.4013,0.4013,0.4013,0.4013,0.4013,0.3764,0.3774,0.3793,0.3811,0.3825,0.384,0.3853,0.3867,0.3884,0.3907,0.3915,0.3937,0.3958,0.399,0.4003,0.4022,0.4022,0.4027,0.4028,0.403,0.4031,0.4007,0.4026,0.4026,0.4026,0.4026,0.4026,0,0.3771,0.3784,0.38,0.3823,0.3838,0.3844,0.3864,0.3876,0.3895,0.3913,0.3931,0.3956,0.3978,0.3998,0.4021,0.4033,0.4038,0.4039,0.4039,0.4042,0.4027,0.4023,0.4035,0.4035,0.4035,0.4035,0.4035,0.4035,0.3776,0.3795,0.3805,0.3833,0.3846,0.3868,0.3879,0.3894,0.391,0.3938,0.3956,0.3969,0.3989,0.4014,0.4036,0.4041,0.4051,0.4051,0.4058,0.4044,0.4043,0.4042,0.4038,0.4053,0.4053,0.4072,0.4072,0.4072]},{"header":{"parameterUnit":"m.s-1","parameterCategory":1,"la1":30.2991,"la2":30.254,"lo1":-89.0895,"lo2":-89.0444,"dx":0.0017,"dy":0.0017,"nx":28,"ny":28,"refTime":"2023-01-17T09:00:00:Z","depth":0,"parameterNumber":3,"parameterNumberName":"V-component_of_WINDS"},"data":[0,0,0,0,0,0,0,0,0,0,0,0,0,0,0,0,0,0,0,0,0,0,0,0,0,0,0,0,0,0,0,0,0,0,0,0,0,0,0,0,0,0,0,0,0,0,0,0,0,0,0,0,0,0,0,0,0,0,2.5413,2.5414,0,2.549,2.5491,2.5492,2.5462,2.546,2.5458,2.5457,2.5537,2.5541,2.5545,0,0,0,0,0,0,0,0,0,0,0,0,0,2.524,2.5244,2.5413,2.5414,2.5415,2.549,2.5491,2.5492,2.5462,2.546,2.5458,2.5456,2.5536,2.5541,2.5545,0,0,0,0,0,0,0,0,0,0,0,0,0,2.5316,2.5245,2.5412,2.5409,2.5409,2.549,2.5491,2.5492,2.5463,2.546,2.5457,2.5455,2.5535,2.554,2.5546,2.5635,0,0,2.5563,2.5566,0,0,0,0,0,0,0,0,2.5312,2.5323,2.5408,2.5409,2.541,2.5464,2.546,2.554,2.5463,2.5442,2.5457,2.5453,2.5515,2.5522,2.5543,2.5639,2.5642,2.5564,2.5567,2.557,2.5571,0,0,0,0,0,0,0,2.5307,2.5319,2.5443,2.541,2.5411,2.5404,2.5411,2.5475,2.5493,2.5444,2.5442,2.5452,2.5515,2.5537,2.5544,2.5643,2.5564,2.5569,2.5572,2.5574,2.5818,2.5821,0,0,0,0,0,0,2.5301,2.5315,2.5441,2.5446,2.5353,2.5409,2.5418,2.5449,2.5492,2.5496,2.5454,2.545,2.5529,2.5538,2.5547,2.5656,2.557,2.5575,2.5578,2.5815,2.5819,2.5822,0,0,0,0,0,0,2.5297,2.5313,2.5438,2.538,2.5395,2.5415,2.545,2.5452,2.5474,2.5499,2.5503,2.5473,2.5527,2.5539,2.5614,2.5659,2.5578,2.5583,2.5812,2.5816,2.5821,2.5875,0,0,0,0,0,0,2.5293,2.5311,2.5345,2.5381,2.5398,2.5503,2.5453,2.5455,2.5484,2.548,2.5519,2.5522,2.5526,2.5605,2.5619,2.5665,2.5587,2.5808,2.5814,2.5819,2.5869,2.588,2.589,0,0,0,0,0,2.5287,2.5357,2.5347,2.5363,2.5441,2.5505,2.5516,2.5518,2.5488,2.5523,2.5539,2.5521,2.5651,2.5613,2.5629,2.5677,2.5805,2.5812,2.5819,2.5864,2.5878,2.589,0,0,0,0,0,0,2.5327,2.5362,2.5351,2.5435,2.5468,2.55,2.5544,2.5532,2.5574,2.5568,2.5569,2.5578,2.5656,2.5673,2.5631,2.5766,2.5723,2.5734,2.5753,2.5766,2.5777,2.5772,2.5592,0,0,0,0,0,2.5346,2.5395,2.5422,2.5494,2.5511,2.5525,2.5553,2.5551,2.5585,2.5599,2.562,2.5654,2.5703,2.5735,2.5781,2.587,2.5879,2.5911,2.5921,2.593,2.594,2.5991,2.6006,2.5845,2.5845,2.5844,0,0,2.5385,2.541,2.5441,2.5503,2.5528,2.558,2.5537,2.5592,2.5631,2.5607,2.568,2.5697,2.5735,2.5818,2.5855,2.5835,2.5986,2.5939,2.5945,2.5951,2.5999,2.6015,2.6028,2.5849,2.5848,2.5848,0,0,2.5484,2.5506,2.557,2.5596,2.5634,2.5642,2.5658,2.5692,2.5703,2.5775,2.5759,2.5804,2.5887,2.5916,2.5941,2.605,2.6036,2.6064,2.6121,2.6171,2.6184,2.6195,2.6237,2.6251,2.6073,2.6074,2.6074,0,2.5528,2.5605,2.5604,2.5662,2.5691,2.567,2.5735,2.576,2.5811,2.5832,2.5807,2.5912,2.5936,2.6026,2.6053,2.6073,2.6092,2.6062,2.6182,2.6193,2.6204,2.6243,2.6259,2.6077,2.6077,2.6076,2.6076,0,2.5659,2.5713,2.5759,2.581,2.5843,2.5904,2.5912,2.5946,2.5941,2.5953,2.6028,2.6055,2.6107,2.6128,2.6123,2.6218,2.6204,2.6181,2.6138,2.6222,2.626,2.6275,2.6082,2.6081,2.608,2.6079,0,0,2.5788,2.5836,2.5854,2.5877,2.5918,2.5959,2.6019,2.607,2.61,2.6135,2.6187,2.6257,2.6236,2.6265,2.6263,2.6306,2.6394,2.6278,2.6279,2.6301,2.6503,2.6523,2.654,2.6384,2.6386,2.6389,2.6501,0,2.5892,2.5998,2.5999,2.6097,2.6148,2.6129,2.6181,2.6212,2.6224,2.6269,2.6282,2.6333,2.6299,2.6317,2.6358,2.6375,2.6435,2.6366,2.6434,2.6437,2.6429,2.6559,2.6581,2.6685,2.6515,2.6517,2.6519,0,2.6029,2.6069,2.6173,2.6207,2.6228,2.6276,2.6323,2.6365,2.64,2.6405,2.6437,2.6429,2.6491,2.6444,2.6531,2.6484,2.6512,2.6524,2.6528,2.6537,2.6486,2.6575,2.6718,2.6735,2.6542,2.654,2.6538,0,2.6117,2.6196,2.6269,2.6289,2.633,2.6364,2.6383,2.6414,2.6445,2.6486,2.6506,2.6553,2.658,2.6616,2.6622,2.6587,2.671,2.6663,2.6719,2.6719,2.6748,2.6747,2.6901,2.676,2.676,2.676,2.6759,0,2.6235,2.63,2.6309,2.6355,2.6427,2.6426,2.6498,2.6513,2.6542,2.659,2.6575,2.6621,2.6624,2.6671,2.6675,2.6748,2.6759,2.6767,2.6768,2.677,2.677,2.6791,2.6785,2.6764,2.6763,2.6762,2.6761,0,2.6347,2.6355,2.6434,2.6466,2.6475,2.6527,2.6555,2.6598,2.6608,2.667,2.6684,2.67,2.6755,2.6763,2.6826,2.6829,2.6918,2.6909,2.6907,2.6907,2.6963,2.6959,2.7139,2.7163,2.7003,2.7005,2.7006,0,2.6424,2.6473,2.651,2.6542,2.6562,2.6613,2.6644,2.6645,2.6678,2.6721,2.676,2.6813,2.6856,2.6944,2.6962,2.7011,2.7006,2.7066,2.7014,2.7015,2.7011,2.701,2.7016,2.7077,2.7079,2.708,2.7081,0,2.6561,2.6562,2.6608,2.6656,2.6693,2.673,2.6766,2.6792,2.6797,2.6835,2.6891,2.6925,2.699,2.7044,2.7092,2.7112,2.7099,2.7097,2.7113,2.7118,2.7116,2.7121,2.6938,2.7094,2.7092,2.7092,2.7091,2.709,2.666,2.6704,2.6737,2.6789,2.6815,2.6848,2.6891,2.6906,2.6953,2.7006,2.7003,2.7065,2.7099,2.7163,2.7186,2.7235,2.7216,2.7238,2.7244,2.7251,2.7258,2.7105,2.7243,2.7243,2.7242,2.7242,2.7242,0,2.6799,2.6819,2.6866,2.6916,2.6957,2.6939,2.6977,2.7013,2.7068,2.71,2.7142,2.7207,2.7259,2.728,2.7331,2.7366,2.7362,2.738,2.738,2.7385,2.7271,2.7253,2.7383,2.7383,2.7383,2.7383,2.7383,2.7383,2.6876,2.695,2.6956,2.7043,2.7063,2.7124,2.7148,2.7179,2.7204,2.7278,2.7321,2.7334,2.7362,2.7415,2.7462,2.7467,2.7488,2.751,2.7513,2.7407,2.7392,2.7379,2.7363,2.7514,2.7514,2.7623,2.7624,2.7625]}]]